Погода в Яблоньке

Россия / Тверская область     57°39′28″N   33°25′43″E
темп.,
°C
ветер,
м/с
пор.,
м/с
влажн.,
%
обл.,
%
осадки,
мм/ч
давл.,
гПа
погр.,
м
8 марта, пн
пн800:00−8з61291100 0.6 9931046
03:00−9сз61190100 1.4 995780
06:00−11ссз41193100 0.1 998467
09:00−9ссз598999 0.2 1002693
12:00−9ссз4782100 0.1 1005750
15:00−8ссз5781100 0.3 1008888
18:00−10ссз4887100 0.1 1010726
21:00−13ссз3895100 0.2 1013391
9 марта, вт
вт900:00−15ссз2698100 0.0 1015216
03:00−17сз249792 0.1 101698
06:00−18ссз25988 0.0 1017138
09:00−18ссз24908 0.0 1019237
12:00−13ссз237219 0.0 1020554
15:00−11ссз246922 0.0 1021820
18:00−13ссв228529 0.0 102157
21:00−16всв239319 0.0 102476
10 марта, ср
ср1000:00−18всв269749 0.0 1025183
03:00−20в369747 0.0 1026214
06:00−22в25973 0.0 1028153
09:00−20в35862 0.0 1029213
12:00−14в24640 0.0 1029419
15:00−10в23570 0.0 1029765
18:00−13вюв12750 0.0 102820
21:00−16юв128432 0.0 103020
11 марта, чт
чт1100:00−17ю128858 0.0 103020
03:00−18ю228732 0.0 103035
06:00−19ююв25860 0.0 1029116
09:00−16ююв37739 0.0 1029250
12:00−10ююв486010 0.0 1027531
15:00−8ююв48594 0.0 1026682
18:00−10ююв410710 0.0 1024490
21:00−13ююв412860 0.0 1023351
12 марта, пт
пт1200:00−14ююв411912 0.0 1022343
03:00−14ююв4119436 0.0 1019344
06:00−14юв5129293 0.0 1016386
09:00−12юв6148196 0.0 1013536
12:00−9юв71486100 0.1 1009693
15:00−7юв71587100 0.9 10061110
18:00−6юв71491100 1.1 10031130
21:00−5юв61294100 2.2 1000932